Tracking 29528 objects as of 13-Sep-2024
HD Live streaming from Space Station
objects crossing your sky now

GLOBALSTAR M047

Track GLOBALSTAR M047 now!
10-day predictions
GLOBALSTAR M047 is classified as:


NORAD ID: 25772
Int'l Code: 1999-031C
Perigee: 1,994.2 km
Apogee: 2,021.7 km
Inclination: 52.0 °
Period: 127.2 minutes
Semi major axis: 8378 km
RCS: 2.931 m2 (large)
Launch date: June 10, 1999
Source: Globalstar (GLOB)
Launch site: AIR FORCE EASTERN TEST RANGE (AFETR)
Your satellite tracking list
Your tracking list is empty




NASA's NSSDC Master Catalog

Two Line Element Set (TLE):
1 25772U 99031C   24256.86289784 -.00000062  00000-0  19765-3 0  9996
2 25772  51.9817 126.0026 0016418 143.5043 216.6884 11.31922961439706
Source of the keplerian elements: AFSPC